Location: Caltech
(34.1382°N, 118.1253°W)
Time: 22:44:46
(UTC-07:00)

Sapphire - Visible Passes

Search period start: 26 July 2016 00:00
Search period end: 05 August 2016 00:00
Orbit: 786 x 796 km, 67.1° (Epoch: 26 July)

Date Brightness Start Highest point End Pass type
(mag) Time Alt. Az. Time Alt. Az. Time Alt. Az.
26 Jul ? 05:13:11 10° NNW 05:18:33 57° ENE 05:23:51 10° SE visible
27 Jul ? 04:42:44 10° N 04:47:51 41° ENE 04:52:55 10° SE visible
27 Jul ? 21:07:04 10° WNW 21:09:42 14° NW 21:12:21 10° NNW visible
28 Jul ? 04:12:23 10° N 04:17:07 30° NE 04:21:48 10° ESE visible
28 Jul ? 20:35:08 10° W 20:38:50 18° NW 20:42:34 10° N visible
29 Jul ? 03:42:11 10° N 03:46:19 22° NE 03:50:27 10° ESE visible
29 Jul ? 05:24:46 10° NW 05:29:55 46° WSW 05:35:02 10° S visible
30 Jul ? 03:12:10 10° NNE 03:15:30 16° NE 03:18:47 10° E visible
30 Jul ? 04:53:59 10° NNW 04:59:22 66° WSW 05:04:42 10° SSE visible
31 Jul ? 02:42:38 10° NNE 02:44:35 12° NE 02:46:32 10° ENE visible
31 Jul ? 04:23:19 10° NNW 04:28:46 88° ENE 04:34:10 10° SSE visible
01 Aug ? 03:52:44 10° NNW 03:58:07 62° ENE 04:03:28 10° SE visible
01 Aug ? 05:38:14 10° WNW 05:40:55 14° WSW 05:43:35 10° SW visible
02 Aug ? 03:22:15 10° NNW 03:27:27 44° ENE 03:32:34 10° SE visible
02 Aug ? 05:06:34 10° WNW 05:10:28 20° WSW 05:14:21 10° SSW visible
03 Aug ? 02:51:52 10° N 02:56:43 32° ENE 03:00:53 13° ESE visible
03 Aug ? 04:35:22 10° NW 04:39:59 29° WSW 04:41:20 26° SW visible
04 Aug ? 02:21:37 10° N 02:25:56 24° NE 02:28:10 18° E visible
04 Aug ? 04:04:24 10° NW 04:08:44 39° W 04:08:44 39° W visible
